Location: Bamazo
(6.7448°N, 10.8189°W)
Time: 01:31:50
(UTC+00:00)

ARIANE 44P R/B - Pass Details

Date: 18 September 2020
Orbit: 351 x 35425 km, 7.3° (Epoch: 20 October)

Event Time Altitude Azimuth Distance (km) Brightness Sun altitude
Rises 20:04:46 0° 252° (WSW) 2,206 6.6 -21.6°
Reaches altitude 10° 20:06:17 10° 237° (WSW) 1,558 5.3 -21.9°
Maximum altitude 20:08:57 29° 171° (S) 1,259 4.0 -22.6°
Enters shadow 20:09:28 28° 158° (SSE) 1,381 4.1 -22.7°
